Weather reports worldwide

Advertisment
Nice, France (7690): temperature & dewpoint: 07.07.2020 07:00:00 - 13.07.2020 07:00:00 (CEST)Nice, France (7690): temperature 5cm: 07.07.2020 07:00:00 - 13.07.2020 07:00:00 (CEST)Nice, France (7690): temperature -20cm & temperature -100cm: 07.07.2020 07:00:00 - 13.07.2020 07:00:00 (CEST)Nice, France (7690): wind speed & gusts: 07.07.2020 07:00:00 - 13.07.2020 07:00:00 (CEST)Nice, France (7690): wind direction: 07.07.2020 07:00:00 - 13.07.2020 07:00:00 (CEST)Nice, France (7690): reduced air pressure: 07.07.2020 07:00:00 - 13.07.2020 07:00:00 (CEST)Nice, France (7690): visibility: 07.07.2020 07:00:00 - 13.07.2020 07:00:00 (CEST)Nice, France (7690): sunshine duration: 07.07.2020 07:00:00 - 13.07.2020 07:00:00 (CEST)Nice, France (7690): precipitation: 07.07.2020 07:00:00 - 13.07.2020 07:00:00 (CEST)
Date & Time tt [°C] td [°C] tt 5cm [°C] tt -20cm [°C] tt -100cm [°C] ff [km/h] ff [kn] fx [km/h] fx [kn] dd ppp [hPa] vv [km] sd [min] rr [mm]
13.07.2020 07:00:00 - - - - - - - - - - - - - -
13.07.2020 06:00:00 23,8 16,6 22,9 25,9 24,5 16 9 24 13 NW 1017,6 40 0 0,0
13.07.2020 05:00:00 24,1 16,1 23,4 25,9 24,5 16 9 22 12 NW 1017,6 40 0 0,0
13.07.2020 04:00:00 24,9 16,1 22,3 25,8 24,4 8 4 13 7 WNW 1017,7 40 0 0,0
13.07.2020 03:00:00 26,3 16,0 25,7 25,8 24,4 10 6 18 10 NNW 1017,9 40 0 0,0
13.07.2020 02:00:00 26,2 15,6 25,5 25,8 24,5 12 7 17 9 NNW 1018,2 40 0 0,0
13.07.2020 01:00:00 25,9 15,6 24,9 25,8 24,5 13 7 24 13 NNW 1018,2 40 0 0,0
13.07.2020 00:00:00 26,3 15,0 25,3 25,8 24,4 13 7 21 12 NNW 1017,8 40 0 0,0
12.07.2020 23:00:00 26,7 15,4 26,3 25,7 24,4 11 6 21 11 NNW 1017,7 40 0 0,0
12.07.2020 22:00:00 27,5 15,5 26,7 25,8 24,4 14 8 19 10 NW 1017,7 40 0 0,0
12.07.2020 21:00:00 27,6 16,2 27,0 25,7 24,4 10 5 14 8 WSW 1017,5 40 4 0,0
12.07.2020 20:00:00 27,4 17,6 28,2 25,7 24,4 5 3 11 6 SSW 1017,1 40 40 0,0
12.07.2020 19:00:00 28,7 17,2 31,8 25,7 24,4 6 4 9 5 S 1017,5 30 24 0,0
12.07.2020 18:00:00 29,3 18,1 31,3 25,7 24,4 5 3 11 6 ESE 1017,7 30 34 0,0
12.07.2020 17:00:00 27,2 18,8 30,9 25,7 24,4 8 4 17 9 SW 1017,9 30 28 0,0
12.07.2020 16:00:00 28,5 19,2 38,2 25,7 24,4 12 6 18 10 SSW 1018,1 30 60 0,0
12.07.2020 15:00:00 28,1 18,8 36,9 25,7 24,4 8 4 15 8 S 1017,8 20 60 0,0
12.07.2020 14:00:00 27,9 19,9 37,6 25,7 24,4 11 6 19 10 SSE 1017,9 20 60 0,0
12.07.2020 13:00:00 27,4 20,7 34,8 25,7 24,4 14 8 27 15 S 1017,8 20 60 0,0
12.07.2020 12:00:00 26,5 21,7 34,5 25,7 24,4 22 12 26 14 S 1017,5 20 60 0,0
12.07.2020 11:00:00 26,6 21,1 35,3 25,7 24,3 15 8 19 10 SSW 1017,2 20 60 0,0
12.07.2020 10:00:00 26,7 20,8 33,7 25,7 24,4 6 3 9 5 S 1016,9 20 60 0,0
12.07.2020 09:00:00 26,6 20,7 28,1 25,7 24,3 4 2 13 7 N 1017,0 20 57 0,0
12.07.2020 08:00:00 24,8 20,3 25,4 25,7 24,3 3 2 11 6 NNW 1016,7 20 46 0,0
12.07.2020 07:00:00 23,7 20,0 22,3 25,7 24,3 6 3 10 5 NW 1016,1 30 24 0,0
12.07.2020 06:00:00 23,2 20,2 22,3 25,7 24,3 5 3 14 7 NNW 1015,4 40 0 0,0
12.07.2020 05:00:00 24,6 21,1 23,9 25,7 24,3 10 5 20 11 E 1015,1 40 0 0,0
12.07.2020 04:00:00 24,3 21,0 23,9 25,7 24,3 18 10 25 14 E 1015,1 40 0 0,0
12.07.2020 03:00:00 24,4 21,3 24,1 25,6 24,3 22 12 29 16 E 1015,3 40 0 0,0
12.07.2020 02:00:00 24,6 21,5 24,3 25,6 24,3 26 14 31 17 E 1015,3 40 0 0,0
12.07.2020 01:00:00 24,6 21,7 24,6 25,6 24,3 22 12 28 15 E 1015,3 40 0 0,0
12.07.2020 00:00:00 24,8 21,9 24,4 25,6 24,3 23 13 30 16 E 1015,1 40 0 0,0
11.07.2020 23:00:00 24,7 21,4 24,5 25,6 24,3 24 13 34 18 E 1014,8 40 0 0,0
11.07.2020 22:00:00 24,9 21,2 24,7 25,5 24,3 26 14 35 19 E 1014,1 40 0 0,0
11.07.2020 21:00:00 25,2 20,7 25,1 25,5 24,2 27 15 40 21 E 1013,5 40 18 0,0
11.07.2020 20:00:00 25,6 22,3 26,4 25,5 24,3 32 17 39 21 E 1012,9 40 55 0,0
11.07.2020 19:00:00 26,2 21,6 29,2 25,5 24,3 27 14 33 18 E 1012,6 40 60 0,0
11.07.2020 18:00:00 26,6 21,4 31,2 25,5 24,3 23 12 28 15 E 1012,9 40 60 0,0
11.07.2020 17:00:00 26,7 21,2 32,6 25,5 24,3 19 11 25 14 E 1013,0 40 60 0,0
11.07.2020 16:00:00 26,9 20,5 34,4 25,5 24,3 14 8 19 10 ESE 1013,3 40 60 0,0
11.07.2020 15:00:00 26,5 20,6 34,9 25,5 24,2 14 7 17 9 ESE 1013,6 40 60 0,0
11.07.2020 14:00:00 26,8 20,9 34,9 25,5 24,2 11 6 16 9 SE 1013,8 40 60 0,0
11.07.2020 13:00:00 26,2 21,0 34,5 25,5 24,2 12 6 16 9 SE 1014,0 40 60 0,0
11.07.2020 12:00:00 26,1 20,7 34,0 25,5 24,2 11 6 15 8 SE 1014,1 40 60 0,0
11.07.2020 11:00:00 26,2 20,3 32,5 25,5 24,2 10 6 14 8 ESE 1014,1 40 60 0,0
11.07.2020 10:00:00 25,9 20,5 30,3 25,5 24,2 9 5 13 7 SE 1014,1 40 56 0,0
11.07.2020 09:00:00 25,5 19,9 29,5 25,5 24,2 4 2 8 4 ESE 1014,0 40 60 0,0
11.07.2020 08:00:00 24,1 18,5 23,5 25,5 24,2 5 3 12 6 N 1014,0 20 60 0,0
11.07.2020 07:00:00 22,3 18,3 21,7 25,5 24,2 10 5 15 8 NNW 1014,0 40 12 0,0
11.07.2020 06:00:00 22,2 18,4 21,6 25,5 24,2 10 5 13 7 NNW 1013,6 40 0 0,0
11.07.2020 05:00:00 22,4 18,6 21,8 25,5 24,2 9 5 14 8 NNW 1013,5 40 0 0,0
11.07.2020 04:00:00 23,1 18,8 22,3 25,5 24,2 7 4 11 6 NE 1013,8 40 0 0,0
11.07.2020 03:00:00 23,8 19,5 22,8 25,5 24,2 4 2 11 6 E 1014,4 40 0 0,0
11.07.2020 02:00:00 24,0 19,7 23,4 25,4 24,1 9 5 18 10 ESE 1014,7 40 0 0,0
11.07.2020 01:00:00 24,3 20,0 23,7 25,4 24,2 14 7 17 9 E 1014,4 40 0 0,0
11.07.2020 00:00:00 24,3 19,4 23,4 25,4 24,1 9 5 12 7 E 1014,5 40 0 0,0
10.07.2020 23:00:00 24,3 18,9 23,6 25,4 24,1 5 3 7 4 ESE 1014,4 40 0 0,0
10.07.2020 22:00:00 24,4 19,0 23,8 25,4 24,1 0 0 11 6 N 1014,6 40 0 0,0
10.07.2020 21:00:00 24,7 19,3 24,8 25,4 24,1 8 4 16 8 S 1014,4 40 36 0,0
10.07.2020 20:00:00 25,5 18,4 28,2 25,4 24,2 7 4 13 7 SSE 1014,6 40 50 0,0
10.07.2020 19:00:00 25,5 19,9 28,9 25,3 24,1 9 5 11 6 S 1014,4 40 27 0,0
10.07.2020 18:00:00 25,7 20,0 32,6 25,4 24,2 7 4 14 8 S 1014,6 40 48 0,0
10.07.2020 17:00:00 26,1 20,7 32,4 25,4 24,1 11 6 18 10 SSE 1014,9 40 26 0,0
10.07.2020 16:00:00 26,3 19,9 33,0 25,3 24,1 14 7 20 11 SE 1014,6 40 39 0,0
10.07.2020 15:00:00 26,5 20,6 35,5 25,4 24,1 11 6 14 8 ESE 1014,8 40 60 0,0
10.07.2020 14:00:00 26,1 20,4 35,5 25,4 24,0 10 5 14 8 SSE 1015,5 40 60 0,0
10.07.2020 13:00:00 26,3 20,6 34,7 25,3 24,0 10 5 13 7 SSE 1015,8 40 60 0,0
10.07.2020 12:00:00 25,4 20,0 33,8 25,4 24,1 9 5 14 8 SE 1016,0 40 60 0,0
10.07.2020 11:00:00 25,5 20,3 33,1 25,4 24,1 9 5 11 6 SSE 1016,2 40 60 0,0
10.07.2020 10:00:00 25,7 20,0 31,3 25,4 24,1 6 3 9 5 ESE 1016,2 40 60 0,0
10.07.2020 09:00:00 25,6 19,3 28,4 25,4 24,1 4 2 11 6 ESE 1016,3 40 60 0,0
10.07.2020 08:00:00 23,8 16,3 23,8 25,3 24,1 8 4 15 8 NNW 1016,0 40 60 0,0
10.07.2020 07:00:00 22,2 16,0 21,2 25,3 24,0 8 4 14 8 NW 1016,0 40 31 0,0
10.07.2020 06:00:00 21,7 15,8 20,9 25,3 24,1 12 6 15 8 NNW 1015,4 40 0 0,0
10.07.2020 05:00:00 21,6 15,9 20,9 25,3 24,0 10 5 14 8 NNW 1015,2 40 0 0,0
10.07.2020 04:00:00 21,5 16,0 21,0 25,3 24,0 9 5 13 7 NW 1015,5 40 0 0,0
10.07.2020 03:00:00 22,5 16,3 21,8 25,3 24,0 8 4 11 6 NNW 1016,0 40 0 0,0
10.07.2020 02:00:00 23,0 16,8 22,1 25,3 24,0 9 5 12 6 NNW 1016,1 40 0 0,0
10.07.2020 01:00:00 23,3 17,1 22,6 25,2 24,0 7 4 10 5 NW 1016,2 40 0 0,0
10.07.2020 00:00:00 23,6 17,6 22,5 25,2 24,0 8 4 10 5 NW 1016,2 40 0 0,0
09.07.2020 23:00:00 24,6 19,7 23,4 25,2 24,0 5 3 6 4 SSW 1016,3 40 0 0,0
09.07.2020 22:00:00 24,8 19,4 24,1 25,2 24,0 5 3 8 5 S 1016,2 40 0 0,0
09.07.2020 21:00:00 24,9 18,3 24,8 25,2 24,0 5 3 11 6 S 1016,0 40 39 0,0
09.07.2020 20:00:00 25,7 18,6 29,1 25,2 24,0 6 3 15 8 S 1016,1 40 60 0,0
09.07.2020 19:00:00 26,1 17,5 31,7 25,2 24,0 11 6 15 8 S 1016,2 40 60 0,0
09.07.2020 18:00:00 26,8 17,6 34,9 25,2 23,9 10 5 15 8 SSE 1016,4 40 60 0,0
09.07.2020 17:00:00 26,9 18,5 35,9 25,2 24,0 10 5 15 8 S 1016,9 40 60 0,0
09.07.2020 16:00:00 26,7 19,1 36,6 25,2 23,9 11 6 15 8 SSE 1017,2 40 60 0,0
09.07.2020 15:00:00 26,8 18,6 37,2 25,2 23,9 9 5 14 8 SSE 1017,5 40 60 0,0
09.07.2020 14:00:00 26,8 18,1 37,2 25,2 24,0 9 5 17 9 SSE 1017,7 40 60 0,0
09.07.2020 13:00:00 27,2 17,7 36,8 25,2 24,0 8 4 11 6 SE 1017,8 40 60 0,0
09.07.2020 12:00:00 26,5 18,9 35,4 25,2 23,9 7 4 11 6 SSE 1018,1 40 60 0,0
09.07.2020 11:00:00 26,0 19,9 32,9 25,2 23,9 5 3 10 6 SE 1018,0 20 60 0,0
09.07.2020 10:00:00 25,9 19,5 31,3 25,2 23,9 9 5 13 7 ESE 1017,3 40 60 0,0
09.07.2020 09:00:00 25,8 19,0 30,1 25,2 23,9 9 5 13 7 E 1016,8 40 60 0,0
09.07.2020 08:00:00 24,8 16,8 24,3 25,2 23,9 7 4 11 6 NE 1016,6 40 60 0,0
09.07.2020 07:00:00 22,6 16,2 21,5 25,2 23,9 9 5 16 9 NNW 1016,4 40 30 0,0
09.07.2020 06:00:00 22,1 16,1 21,4 25,2 23,9 13 7 19 10 NW 1016,4 40 0 0,0
09.07.2020 05:00:00 22,8 15,9 22,0 25,2 23,9 14 8 22 12 NW 1016,2 40 0 0,0
09.07.2020 04:00:00 22,7 15,8 21,9 25,2 23,9 15 8 22 12 NW 1016,1 40 0 0,0
09.07.2020 03:00:00 22,6 15,4 21,9 25,2 23,9 13 7 20 11 NNW 1016,2 40 0 0,0
09.07.2020 02:00:00 22,6 15,2 21,8 25,1 23,9 11 6 17 9 NNW 1016,8 40 0 0,0
09.07.2020 01:00:00 22,7 15,3 22,1 25,2 23,9 13 7 17 9 NNW 1017,2 40 0 0,0
09.07.2020 00:00:00 23,1 15,4 21,9 25,1 23,9 10 5 13 7 NW 1017,2 40 0 0,0
08.07.2020 23:00:00 24,1 15,6 20,8 25,1 23,9 7 4 9 5 WNW 1016,7 40 0 0,0
08.07.2020 22:00:00 24,2 16,5 22,3 25,1 23,9 2 1 7 4 WSW 1016,3 35 0 0,0
08.07.2020 21:00:00 24,8 16,5 24,6 25,1 23,8 6 3 10 6 SSW 1016,0 35 46 0,0
08.07.2020 20:00:00 25,4 17,3 28,5 25,1 23,9 8 4 11 6 S 1016,0 35 60 0,0
08.07.2020 19:00:00 25,8 18,5 32,3 25,1 23,9 6 4 10 6 S 1015,9 30 60 0,0
08.07.2020 18:00:00 26,1 17,7 35,2 25,0 23,7 8 5 11 6 S 1016,2 30 60 0,0
08.07.2020 17:00:00 26,4 18,5 35,3 25,1 23,8 7 4 13 7 SSE 1016,7 30 60 0,0
08.07.2020 16:00:00 26,5 18,4 35,2 25,1 23,8 10 5 14 8 SSE 1017,1 30 60 0,0
08.07.2020 15:00:00 26,3 20,2 35,7 25,1 23,8 11 6 16 9 SE 1017,1 30 60 0,0
08.07.2020 14:00:00 26,6 18,7 35,2 25,1 23,8 13 7 19 11 SSE 1017,0 30 60 0,0
08.07.2020 13:00:00 26,4 19,0 34,5 25,1 23,8 15 8 19 10 SSE 1017,2 30 60 0,0
08.07.2020 12:00:00 26,0 20,1 34,4 25,1 23,8 11 6 16 9 SSE 1017,0 30 60 0,0
08.07.2020 11:00:00 26,0 21,0 27,0 25,1 23,8 11 6 14 7 SE 1016,7 30 28 0,0
08.07.2020 10:00:00 25,0 20,5 27,7 25,1 23,8 10 5 14 7 ENE 1016,4 30 24 0,0
08.07.2020 09:00:00 24,8 18,5 25,7 25,1 23,8 5 3 10 5 NE 1016,3 30 34 0,0
08.07.2020 08:00:00 24,0 15,0 24,6 25,1 23,8 9 5 20 11 NNW 1015,8 30 44 0,0
08.07.2020 07:00:00 22,6 14,7 21,2 25,1 23,8 12 7 18 10 NNW 1015,4 30 29 0,0
08.07.2020 06:00:00 22,0 15,1 21,3 25,1 23,8 13 7 17 9 NNW 1015,2 30 0 0,0
08.07.2020 05:00:00 22,3 15,4 21,6 25,1 23,8 13 7 19 10 NNW 1015,2 30 0 0,0
08.07.2020 04:00:00 22,6 15,4 21,6 25,1 23,7 13 7 19 11 NNW 1014,9 30 0 0,0
08.07.2020 03:00:00 22,9 15,7 22,1 25,0 23,8 13 7 16 9 NNW 1014,9 30 0 0,0
08.07.2020 02:00:00 23,2 16,3 22,2 25,0 23,7 9 5 11 6 NW 1015,1 30 0 0,0
08.07.2020 01:00:00 24,2 16,2 22,9 25,0 23,7 6 4 14 8 WNW 1014,9 30 0 0,0
08.07.2020 00:00:00 25,0 16,7 23,8 25,0 23,7 10 5 19 10 W 1014,9 30 0 0,0
07.07.2020 23:00:00 25,2 18,6 24,3 25,0 23,7 14 8 27 15 SW 1014,6 30 0 0,0
07.07.2020 22:00:00 25,8 19,4 25,2 25,0 23,7 21 12 32 17 SW 1014,3 30 0 0,0
07.07.2020 21:00:00 25,9 19,5 25,7 25,0 23,7 17 9 25 14 SW 1013,4 30 45 0,0
07.07.2020 20:00:00 27,1 20,4 29,1 25,0 23,7 17 9 28 15 SW 1013,1 30 60 0,0
07.07.2020 19:00:00 26,9 20,5 30,9 25,0 23,7 21 12 31 17 SSW 1012,8 30 60 0,0
07.07.2020 18:00:00 26,9 20,5 33,5 25,0 23,7 19 10 24 13 SSW 1012,8 30 60 0,0
07.07.2020 17:00:00 27,4 18,9 31,4 24,9 23,7 15 8 27 14 SSW 1013,0 30 43 0,0
07.07.2020 16:00:00 26,7 18,8 30,9 24,9 23,7 23 12 29 16 S 1012,9 30 45 0,0
07.07.2020 15:00:00 28,4 16,3 32,0 25,0 23,7 23 12 27 15 SSE 1012,5 30 47 0,0
07.07.2020 14:00:00 27,5 19,3 35,7 25,0 23,6 21 11 28 15 SSW 1012,2 30 58 0,0
07.07.2020 13:00:00 27,7 17,8 35,5 24,9 23,7 17 9 23 12 SSW 1011,9 30 60 0,0
07.07.2020 12:00:00 26,7 19,1 33,5 24,9 23,6 19 10 27 15 S 1011,4 30 60 0,0
07.07.2020 11:00:00 26,0 19,2 33,4 25,0 23,6 23 13 28 15 S 1010,5 30 60 0,0
07.07.2020 10:00:00 26,4 19,3 31,4 25,0 23,6 18 10 24 13 SSW 1009,7 30 60 0,0
07.07.2020 09:00:00 25,4 18,3 28,2 24,9 23,6 14 8 29 16 WSW 1009,0 30 60 0,0
07.07.2020 08:00:00 24,8 15,1 24,2 24,9 23,6 19 10 26 14 NW 1008,7 30 60 0,0
07.07.2020 07:00:00 22,6 16,6 21,4 24,9 23,6 11 6 16 8 NW 1008,4 30 31 0,0

tt = temperature
td = dewpoint
tt 5cm = temperature 5cm
tt -20cm = temperature -20cm
tt -100cm = temperature -100cm
ff = wind speed
fx = gusts
dd = wind direction
ppp = reduced air pressure
vv = visibility
sd = sunshine duration
rr = precipitation

Next stations